Tracking 32579 objects as of 15-Dec-2025
HD Live streaming from Space Station
objects crossing your sky now

STARLINK-35722

Track STARLINK-35722 now!
10-day predictions
STARLINK-35722 is classified as:


NORAD ID: 66218
Int'l Code: 2025-244N
Perigee: 453.6 km
Apogee: 455.2 km
Inclination: 53.2 °
Period: 93.5 minutes
Semi major axis: 6825 km
RCS: Unknown
Launch date: October 28, 2025
Source: United States (US)
Launch site: AIR FORCE WESTERN TEST RANGE (AFWTR)
Your satellite tracking list
Your tracking list is empty




NASA's NSSDC Master Catalog

Two Line Element Set (TLE):
1 66218U 25244N   25348.47509735  .00063300  00000-0  15799-2 0  9997
2 66218  53.1602 267.7945 0001243  65.6013 294.5121 15.39610604  8583
Source of the keplerian elements: AFSPC